AirNav   Everest Fuels
 
 1066 users online  

P72 Penn's Landing Heliport
Philadelphia, Pennsylvania, USA

GOING TO PHILADELPHIA?


FAA INFORMATION EFFECTIVE 05 NOVEMBER 2020

Location

FAA Identifier: P72
Lat/Long: 39-56-14.4060N 075-08-28.6360W
39-56.240100N 075-08.477267W
39.9373350,-75.1412878
(estimated)
Elevation: 15 ft. / 5 m (estimated)
Variation: 11W (1985)
Time zone: UTC -5 (UTC -4 during Daylight Saving Time)
Zip code: 19147

Heliport Operations

Heliport use: Open to the public
Activation date: 07/1985
Control tower: no
ARTCC: NEW YORK CENTER
FSS: WILLIAMSPORT FLIGHT SERVICE STATION
NOTAMs facility: IPT (NOTAM-D service available)
Attendance: MON-FRI 0800-1800
FOR ATTENDANCE ON WEEKENDS/HOLIDAYS CALL 215-271-2510.
Wind indicator: lighted
Segmented circle: no
Lights: ACTVT PERIMETER LGTS - 123.025.
Beacon: white-green-yellow (heliport)
Landing fee: yes

Heliport Communications

CTAF: 122.9
WX ASOS at PHL (6 nm SW): PHONE 215-492-9617
WX ASOS at PNE (11 nm NE): 121.15 (215-677-0146)
WX AWOS-3 at LOM (13 nm NW): 118.925 (215-646-1068)
WX ASOS at VAY (14 nm E): 119.325 (609-267-1176)
  • CLEARANCE DELIVERY PHILADELPHIA APCH TF 800-354-9884.

Nearby radio navigation aids

VOR radial/distance  VOR name  Freq  Var
OODr032/19.6WOODSTOWN VORTAC112.8010W
ARDr219/21.8YARDLEY VOR/DME108.2010W
MXEr096/24.4MODENA VORTAC113.2009W
VCNr351/25.3CEDAR LAKE VOR/DME115.2010W
GXUr272/25.4MC GUIRE VORTAC110.6012W
PTWr141/25.7POTTSTOWN VORTAC116.5009W
DQOr064/26.5DUPONT VORTAC114.0010W
CYNr292/33.5COYLE VORTAC113.4010W
RBVr252/33.7ROBBINSVILLE VORTAC113.8010W
ACYr328/38.9ATLANTIC CITY VORTAC117.1510W

 
NDB name  Hdg/Dist  Freq  Var  ID
AMBLER162/13.127512WING .. -. --.
RAINBOW010/31.136311WRNB .-. -. -...
LAKEHURST271/37.639611WNEL -. . .-..

Heliport Services

Fuel available: A
Parking: hangars and tiedowns

Runway Information

Helipad H1

Dimensions: 68 x 68 ft. / 21 x 21 m
Surface: asphalt, in fair condition
Latitude: 39-56.240100N
Longitude: 075-08.477267W
Elevation: 15.0 ft.
Traffic pattern: leftleft
Markings: basic, in fair condition
Approach lights: NSTD
GREEN LGTS ON E AND S SIDES ONLY.

Heliport Ownership and Management from official FAA records

Ownership: Publicly-owned
Owner: PHILADELPHIA PORT CORPORATION
1020 PUBLIC LEDGER BLDG
PHILADELPHIA, PA 19106
Phone 215-928-9100
Manager: PHIL BIDDEN
801 S COLUMBUS BLVD
PHILADELPHIA, PA 19147
Phone 215-271-2510

Heliport Operational Statistics

Aircraft based on the field: 1
Helicopters: 1
    
Aircraft operations: avg 33/day *
75% transient general aviation
24% local general aviation
<1% military
* for 12-month period ending 27 July 2020

Additional Remarks

A52-H1 LGTD BLDG 660 FT NORTH OF PAD.
RY H1 SHALLOW SFC DEPRESSIONS.
H1 INGRESS 230/310 DEGS, EGRESS 050/130 DEGS.
LGTD BUILDING 660 FT NORTH OF PAD.
FOR CD CTC PHILADELPHIA APCH AT 800-354-9884.

Instrument Procedures

There are no published instrument procedures at P72.

Some nearby airports with instrument procedures:

KPHL - Philadelphia International Airport (6 nm SW)
KPNE - Northeast Philadelphia Airport (11 nm NE)
19N - Camden County Airport (13 nm SE)
KLOM - Wings Field Airport (13 nm NW)
KVAY - South Jersey Regional Airport (14 nm E)
17N - Cross Keys Airport (15 nm S)
N14 - Flying W Airport (15 nm E)
7N7 - Spitfire Aerodrome (17 nm SW)
 
Loc | Ops | Rwys | IFR | FBO | Links
Com | Nav | Svcs | Stats | Notes
Area around P72 (Penn's Landing Heliport)
 
Road maps at: MapQuest Bing Google
 
Aerial photo
WARNING: Photo may not be current or correct
Aerial photo of P72 (Penn's Landing Heliport)
Photo by Alex St. Pedro
Photo taken 22-Apr-2009

Do you have a better or more recent aerial photo of Penn's Landing Heliport that you would like to share? If so, please send us your photo.

 
Sectional chart

 
Airport distance calculator
Flying to Penn's Landing Heliport? Find the distance to fly.

From to P72

Sunrise and sunset
Times for 28-Nov-2020
 Local
(UTC-5)
 Zulu
(UTC)
Morning civil twilight06:3211:32
Sunrise07:0212:02
Sunset16:3621:36
Evening civil twilight17:0622:06

Current date and time
Zulu (UTC)  28-Nov-2020 17:40:08
Local (UTC-5)  28-Nov-2020 12:40:08
 
METAR
KPHL 
6nm SW 
281654Z 29015G20KT 10SM SCT049 BKN075 14/02 A3001 RMK AO2 SLP161 T01390022
KPNE 
10nm NE 
281654Z 30011KT 10SM OVC047 13/04 A3001 RMK AO2 SLP161 T01280039
KLOM 
13nm NW 
281715Z AUTO 28004KT 10SM SCT041 OVC050 13/04 A3000 RMK AO2 T01310037
KVAY 
14nm E 
ASOS 119.325 609-267-1176
281654Z AUTO VRB06KT 10SM FEW047 SCT060 14/03 A2999 RMK AO2 SLP155 T01390033
TAF
KPHL 
6nm SW 
281452Z 2815/2918 28006KT P6SM BKN050 FM281600 29011G20KT P6SM BKN060 FM282300 30008KT P6SM FEW060 FM290500 27005KT P6SM SKC FM291500 24005KT P6SM SKC
KPNE 
10nm NE 
281120Z 2812/2912 26005KT P6SM BKN040 FM281600 29011G19KT P6SM BKN060 FM282200 30008KT P6SM FEW060 FM290500 VRB04KT P6SM SKC
NOTAMs
Click for the latest NOTAMs
NOTAMs are issued by the DoD/FAA and will open in a separate window not controlled by AirNav.

 

 
 

FBO, Fuel Providers, and Aircraft Ground Support

  
 Business Name 
 
 Contact 
 
 Services / Description 
 
Fuel Prices
 
Comments
  
Sterling Helicopter 215-271-2510
no information available

If you are affiliated with Sterling Helicopter and would like to show here your services, contact info, web link, logo, and more, click here
Jet A
FS $5.95 
 Updated 22-Jun-2020
 
   write
FS=Full service
Update Fuel Prices
 

Would you like to see your business listed on this page?

 If your business provides an interesting product or service to pilots, flight crews, aircraft, or users of the Penn's Landing Heliport, you should consider listing it here.  To start the listing process, click on the button below
 
Add a business
 

Other Pages about Penn's Landing Heliport

Update a link
 
Copyright © AirNav, LLC. All rights reserved. Privacy Policy  Contact